Previsão horária em Plochowo

Hoje, 5 Março, Sexta-feira

Tempo Temperatura Precipitação Vento Pressão Humidade
00:00 -2°C° 0 mm 2 m/s 750 mmHg 84%
01:00 -3°C° 0 mm 2 m/s 750 mmHg 84%
02:00 -3°C° 0 mm 2 m/s 751 mmHg 83%
03:00 -4°C° 0 mm 2 m/s 751 mmHg 81%
04:00 -4°C° 0 mm 2 m/s 751 mmHg 79%
05:00 -4°C° 0 mm 2 m/s 751 mmHg 77%
06:00 -4°C° 0 mm 2 m/s 751 mmHg 75%
07:00 -4°C° 0 mm 2 m/s 752 mmHg 72%
08:00 -3°C° 0 mm 2 m/s 752 mmHg 70%
09:00 -2°C° 0 mm 3 m/s 752 mmHg 67%
10:00 -1°C° 0 mm 3 m/s 753 mmHg 63%
11:00 -1°C° 0 mm 4 m/s 753 mmHg 60%
12:00 -1°C° 0 mm 4 m/s 753 mmHg 55%
13:00 0°C° 0 mm 4 m/s 753 mmHg 50%
14:00 0°C° 0 mm 4 m/s 754 mmHg 45%
15:00 +1°C° 0 mm 3 m/s 754 mmHg 43%
16:00 0°C° 0 mm 3 m/s 754 mmHg 41%
17:00 0°C° 0 mm 3 m/s 754 mmHg 40%
18:00 -1°C° 0 mm 2 m/s 755 mmHg 43%
19:00 -2°C° 0 mm 2 m/s 755 mmHg 47%
20:00 -1°C° 0 mm 1 m/s 755 mmHg 50%
21:00 -3°C° 0 mm 2 m/s 756 mmHg 55%
22:00 -3°C° 0 mm 2 m/s 756 mmHg 60%
23:00 -2°C° 0 mm 3 m/s 756 mmHg 65%

Amanhã, 6 Março, Sábado

Tempo Temperatura Precipitação Vento Pressão Humidade
00:00 -4°C° 0 mm 3 m/s 757 mmHg 68%
01:00 -4°C° 0 mm 3 m/s 757 mmHg 70%
02:00 -4°C° 0 mm 4 m/s 757 mmHg 73%
03:00 -4°C° 0 mm 4 m/s 757 mmHg 72%
04:00 -4°C° 0 mm 4 m/s 758 mmHg 71%
05:00 -6°C° 0 mm 5 m/s 758 mmHg 70%
06:00 -5°C° 0 mm 4 m/s 758 mmHg 70%
07:00 -5°C° 0 mm 4 m/s 759 mmHg 70%
08:00 -5°C° 0 mm 3 m/s 759 mmHg 70%
09:00 -4°C° 0 mm 3 m/s 760 mmHg 63%
10:00 -2°C° 0 mm 3 m/s 760 mmHg 55%
11:00 -1°C° 0 mm 3 m/s 760 mmHg 48%
12:00 -2°C° 0 mm 4 m/s 760 mmHg 47%
13:00 -1°C° 0 mm 4 m/s 760 mmHg 47%
14:00 0°C° 0 mm 4 m/s 759 mmHg 46%
15:00 0°C° 0 mm 4 m/s 759 mmHg 47%
16:00 0°C° 0 mm 4 m/s 758 mmHg 48%
17:00 0°C° 0 mm 4 m/s 758 mmHg 49%
18:00 -1°C° 0 mm 4 m/s 757 mmHg 54%
19:00 -2°C° 0 mm 4 m/s 757 mmHg 58%
20:00 -3°C° 0 mm 4 m/s 756 mmHg 63%
21:00 -4°C° 0 mm 5 m/s 756 mmHg 63%
22:00 -3°C° 0 mm 6 m/s 755 mmHg 64%
23:00 -3°C° 0 mm 7 m/s 754 mmHg 65%

Depois de amanhã, 7 Março, Domingo

Tempo Temperatura Precipitação Vento Pressão Humidade
00:00 -3°C° 0 mm 7 m/s 754 mmHg 74%
01:00 -4°C° 0 mm 8 m/s 753 mmHg 84%
02:00 -4°C° 0 mm 8 m/s 752 mmHg 93%
03:00 -4°C° 0.1 mm 8 m/s 751 mmHg 91%
04:00 -4°C° 0.1 mm 9 m/s 751 mmHg 89%
05:00 -4°C° 0.1 mm 9 m/s 750 mmHg 87%
06:00 -4°C° 0.1 mm 9 m/s 750 mmHg 87%
07:00 -4°C° 0.1 mm 9 m/s 750 mmHg 88%
08:00 -4°C° 0.1 mm 9 m/s 749 mmHg 88%
09:00 -3°C° 0.2 mm 9 m/s 749 mmHg 90%
10:00 -3°C° 0.2 mm 9 m/s 749 mmHg 91%
11:00 -2°C° 0.2 mm 8 m/s 749 mmHg 93%
12:00 -3°C° 0.2 mm 9 m/s 749 mmHg 91%
13:00 -3°C° 0.2 mm 9 m/s 749 mmHg 88%
14:00 -1°C° 0.2 mm 9 m/s 749 mmHg 86%
15:00 -1°C° 0.1 mm 9 m/s 748 mmHg 88%
16:00 -2°C° 0.1 mm 8 m/s 748 mmHg 89%
17:00 -2°C° 0.1 mm 8 m/s 748 mmHg 91%
18:00 -2°C° 0.7 mm 7 m/s 748 mmHg 93%
19:00 -3°C° 0.7 mm 6 m/s 748 mmHg 94%
20:00 -4°C° 0.7 mm 5 m/s 748 mmHg 96%
21:00 -3°C° 0.5 mm 4 m/s 748 mmHg 93%
22:00 -4°C° 0.5 mm 3 m/s 748 mmHg 90%
23:00 -3°C° 0.5 mm 2 m/s 748 mmHg 87%

8 Março, Segunda-feira

Tempo Temperatura Precipitação Vento Pressão Humidade
00:00 -3°C° 0 mm 2 m/s 748 mmHg 86%
01:00 -3°C° 0 mm 2 m/s 748 mmHg 85%
02:00 -3°C° 0 mm 2 m/s 748 mmHg 84%
03:00 -4°C° 0 mm 2 m/s 748 mmHg 83%
04:00 -4°C° 0 mm 2 m/s 748 mmHg 83%
05:00 -6°C° 0 mm 3 m/s 748 mmHg 83%
06:00 -6°C° 0 mm 3 m/s 748 mmHg 83%
07:00 -6°C° 0 mm 3 m/s 749 mmHg 84%
08:00 -6°C° 0 mm 3 m/s 749 mmHg 84%
09:00 -5°C° 0 mm 3 m/s 750 mmHg 79%
10:00 -4°C° 0 mm 4 m/s 750 mmHg 74%
11:00 -3°C° 0 mm 4 m/s 750 mmHg 69%
12:00 -3°C° 0.1 mm 4 m/s 751 mmHg 67%
13:00 -4°C° 0.1 mm 5 m/s 751 mmHg 65%
14:00 -2°C° 0.1 mm 5 m/s 751 mmHg 63%
15:00 -4°C° 0 mm 5 m/s 752 mmHg 63%
16:00 -4°C° 0 mm 5 m/s 752 mmHg 64%
17:00 -4°C° 0 mm 5 m/s 752 mmHg 65%
18:00 -4°C° 0 mm 4 m/s 753 mmHg 69%
19:00 -5°C° 0 mm 3 m/s 753 mmHg 73%
20:00 -5°C° 0 mm 3 m/s 754 mmHg 77%
21:00 -6°C° 0 mm 3 m/s 754 mmHg 78%
22:00 -5°C° 0 mm 2 m/s 755 mmHg 79%
23:00 -5°C° 0 mm 2 m/s 755 mmHg 80%

9 Março, Terça-feira

Tempo Temperatura Precipitação Vento Pressão Humidade
00:00 -5°C° 0 mm 2 m/s 756 mmHg 79%
01:00 -6°C° 0 mm 2 m/s 756 mmHg 78%
02:00 -6°C° 0 mm 2 m/s 756 mmHg 78%
03:00 -6°C° 0 mm 2 m/s 757 mmHg 78%
04:00 -6°C° 0 mm 2 m/s 757 mmHg 78%
05:00 -7°C° 0 mm 2 m/s 757 mmHg 78%
06:00 -7°C° 0 mm 2 m/s 757 mmHg 75%
07:00 -8°C° 0 mm 3 m/s 758 mmHg 73%
08:00 -8°C° 0 mm 3 m/s 758 mmHg 70%
09:00 -8°C° 0 mm 3 m/s 758 mmHg 65%
10:00 -7°C° 0 mm 3 m/s 759 mmHg 60%
11:00 -6°C° 0 mm 3 m/s 759 mmHg 55%
12:00 -6°C° 0 mm 3 m/s 759 mmHg 51%
13:00 -5°C° 0 mm 3 m/s 760 mmHg 47%
14:00 -4°C° 0 mm 2 m/s 760 mmHg 43%
15:00 -4°C° 0 mm 2 m/s 760 mmHg 43%
16:00 -4°C° 0 mm 2 m/s 760 mmHg 44%
17:00 -4°C° 0 mm 2 m/s 760 mmHg 44%
18:00 -5°C° 0 mm 2 m/s 760 mmHg 49%
19:00 -5°C° 0 mm 2 m/s 761 mmHg 53%
20:00 -4°C° 0 mm 1 m/s 761 mmHg 57%
21:00 -4°C° 0 mm 1 m/s 761 mmHg 58%
22:00 -4°C° 0 mm 1 m/s 762 mmHg 59%
23:00 -6°C° 0 mm 1 m/s 762 mmHg 60%

10 Março, Quarta-feira

Tempo Temperatura Precipitação Vento Pressão Humidade
00:00 -6°C° 0 mm 1 m/s 762 mmHg 62%
01:00 -7°C° 0 mm 2 m/s 762 mmHg 64%
02:00 -7°C° 0 mm 2 m/s 762 mmHg 65%
03:00 -7°C° 0 mm 2 m/s 762 mmHg 67%
04:00 -8°C° 0 mm 2 m/s 762 mmHg 68%
05:00 -8°C° 0 mm 2 m/s 762 mmHg 69%
06:00 -8°C° 0 mm 2 m/s 762 mmHg 68%
07:00 -9°C° 0 mm 3 m/s 762 mmHg 67%
08:00 -8°C° 0 mm 3 m/s 762 mmHg 67%
09:00 -7°C° 0 mm 3 m/s 762 mmHg 61%
10:00 -7°C° 0 mm 4 m/s 762 mmHg 54%
11:00 -5°C° 0 mm 4 m/s 761 mmHg 48%
12:00 -4°C° 0 mm 4 m/s 761 mmHg 45%
13:00 -4°C° 0 mm 5 m/s 761 mmHg 43%
14:00 -2°C° 0 mm 5 m/s 760 mmHg 40%
15:00 -2°C° 0 mm 5 m/s 760 mmHg 40%
16:00 -2°C° 0 mm 5 m/s 759 mmHg 40%
17:00 -2°C° 0 mm 5 m/s 758 mmHg 40%
18:00 -4°C° 0 mm 5 m/s 758 mmHg 42%
19:00 -5°C° 0 mm 5 m/s 758 mmHg 44%
20:00 -5°C° 0 mm 5 m/s 757 mmHg 46%
21:00 -5°C° 0 mm 5 m/s 757 mmHg 44%
22:00 -5°C° 0 mm 6 m/s 756 mmHg 43%
23:00 -5°C° 0 mm 6 m/s 755 mmHg 42%
Mostrar mais

Necessitamos do seu Consentimento

A Meteoprog e os seus Fornecedores de Serviços podem armazenar e aceder a dados pessoais como cookies, identificadores do dispositivo ou outras tecnologias semelhantes existentes no seu dispositivo e processar estes dados para personalizar conteúdos e anúncios, assim como funcionalidades nas redes sociais e análise de tráfego.

  • Armazenar e/ou aceder a informações no seu dispositivo

    Os cookies, identificadores do dispositivo ou outras informações podem ser armazenados ou acedidos no seu dispositivo, para os fins acima indicados.

  • Anúncios e conteúdos personalizados, medição de anúncios e conteúdos, dados sobre o público-alvo e desenvolvimento de produtos

    Os anúncios e os conteúdos podem ser personalizados com base num perfil. Podem ser adicionados dados adicionais para uma maior personalização dos anúncios e dos conteúdos. A eficácia dos anúncios e dos conteúdos pode ser medida. Podem ser obtidas informações sobre o público que visualizou os anúncios e os conteúdos. Estes dados podem ser usados para desenvolver ou melhorar sistemas, softwares ou a experiência do utilizador.

Ao clicar em "Eu concordo”, permitirá o uso de cookies, identificadores do dispositivo e web beacons mencionados ou outras tecnologias semelhantes. As configurações do navegador do seu dispositivo podem ser alteradas.

Para certos fins, podem ser invocados interesses legítimos ao invés de consentimento. Pode ler mais informação sobre este assunto na nossa Política de Privacidade e Cookies.